Weather History for Brooksville, FL

Change the Weather History Date:

Saturday, June 8, 2013

  Actual Average Record
Temperature  
Mean Temperature 80 °F -  
Max Temperature 88 °F 88 °F 96 °F (2008)
Min Temperature 73 °F 66 °F 63 °F (2006)
Cooling Degree Days 15    
Growing Degree Days 30 (Base 50)    
Moisture  
Dew Point 72 °F    
Average Humidity 85    
Maximum Humidity 96    
Minimum Humidity 63    
Precipitation  
Precipitation 0.02 in - - ()
Sea Level Pressure  
Sea Level Pressure 30.05 in    
Wind  
Wind Speed 4 mph (SSE)    
Max Wind Speed 15 mph    
Max Gust Speed 21 mph    
Visibility 10 miles    
Events Rain    
Averages and records for this station are not official NWS values.
T = Trace of Precipitation, MM = Missing Value Source: NWS Daily Summary

Daily Weather History Graph

Daily Weather History Graph

Search for Another Location

Airport:

Trip Planner

Search our weather history database for the weather conditions in past years. The results will help you decide how hot, cold, wet, or windy it might be!

Date:

Astronomy

Jun. 08, 2013 Rise Set
Actual Time 6:31 AM EDT 8:26 PM EDT
Civil Twilight 6:05 AM EDT 8:53 PM EDT
Nautical Twilight 5:32 AM EDT 9:25 PM EDT
Astronomical Twilight 4:58 AM EDT 9:59 PM EDT
Moon 6:34 AM EDT (6/8) 8:32 PM EDT (6/8)
Length of Visible Light 14h 48m
Length of Day
13h 54m
New Moon, 0% of the Moon is Illuminated
Jun 8
New Moon
Jun 16
First Quarter
Jun 23
Full
Jun 30
Last Quarter
Jul 8
New

Hourly Weather History & Observations

Time (EDT) Temp. Heat Index Dew Point Humidity Pressure Visibility Wind Dir Wind Speed Gust Speed Precip Events Conditions
12:53 AM 73.0 °F - 72.0 °F 96% 29.98 in 10.0 mi Calm Calm - N/A   Clear
1:53 AM 73.0 °F - 71.1 °F 93% 29.99 in 10.0 mi Calm Calm - N/A   Clear
2:53 AM 73.0 °F - 71.1 °F 93% 29.99 in 10.0 mi Calm Calm - N/A   Clear
3:53 AM 73.0 °F - 72.0 °F 96% 29.99 in 10.0 mi SSE 4.6 mph - N/A   Scattered Clouds
4:53 AM 73.0 °F - 72.0 °F 96% 29.99 in 10.0 mi SSE 5.8 mph - N/A   Clear
5:53 AM 73.0 °F - 72.0 °F 96% 29.99 in 10.0 mi SSE 3.5 mph - N/A   Clear
6:53 AM 73.0 °F - 71.1 °F 93% 30.01 in 10.0 mi Calm Calm - N/A   Clear
7:53 AM 75.0 °F - 73.0 °F 94% 30.02 in 10.0 mi Calm Calm - N/A   Clear
8:53 AM 78.1 °F - 75.0 °F 90% 30.04 in 10.0 mi South 4.6 mph - N/A   Clear
9:53 AM 82.0 °F 87.9 °F 73.9 °F 76% 30.05 in 10.0 mi South 8.1 mph - N/A   Clear
10:41 AM 82.4 °F 88.2 °F 73.4 °F 74% 30.06 in 10.0 mi SW 4.6 mph - N/A   Overcast
10:53 AM 82.9 °F 89.4 °F 73.9 °F 74% 30.06 in 10.0 mi WSW 6.9 mph - N/A   Overcast
11:22 AM 84.2 °F 90.9 °F 73.4 °F 70% 30.06 in 10.0 mi Calm Calm - N/A   Mostly Cloudy
11:53 AM 86.0 °F 93.8 °F 73.9 °F 67% 30.06 in 10.0 mi WSW 4.6 mph - N/A   Partly Cloudy
12:53 PM 87.1 °F 94.5 °F 73.0 °F 63% 30.05 in 10.0 mi South 4.6 mph - N/A   Mostly Cloudy
1:53 PM 86.0 °F 93.8 °F 73.9 °F 67% 30.03 in 10.0 mi West 9.2 mph - N/A   Scattered Clouds
2:36 PM 78.8 °F - 71.6 °F 78% 30.04 in 10.0 mi East 10.4 mph - N/A   Overcast
2:53 PM 79.0 °F - 72.0 °F 79% 30.04 in 10.0 mi East 6.9 mph - N/A   Overcast
3:53 PM 87.1 °F 95.4 °F 73.9 °F 65% 30.01 in 10.0 mi Variable 4.6 mph - N/A   Clear
4:53 PM 87.1 °F 94.5 °F 73.0 °F 63% 30.03 in 10.0 mi WSW 9.2 mph - N/A   Scattered Clouds
5:28 PM 75.2 °F - 71.6 °F 89% 30.07 in 10.0 mi ESE 15.0 mph 20.7 mph N/A   Mostly Cloudy
5:49 PM 75.2 °F - 71.6 °F 89% 30.06 in 10.0 mi ESE 10.4 mph - N/A   Mostly Cloudy
5:53 PM 75.9 °F - 71.1 °F 85% 30.06 in 10.0 mi ESE 9.2 mph - N/A   Mostly Cloudy
6:32 PM 75.2 °F - 73.4 °F 94% 30.09 in 10.0 mi East 5.8 mph - N/A   Mostly Cloudy
6:41 PM 77.0 °F - 73.4 °F 89% 30.09 in 10.0 mi East 8.1 mph - N/A   Mostly Cloudy
6:53 PM 77.0 °F - 73.0 °F 88% 30.09 in 10.0 mi East 10.4 mph - N/A   Overcast
7:04 PM 75.2 °F - 71.6 °F 89% 30.10 in 10.0 mi ESE 13.8 mph 19.6 mph N/A   Mostly Cloudy
7:53 PM 75.0 °F - 72.0 °F 90% 30.10 in 10.0 mi SE 12.7 mph - 0.00 in   Overcast
8:04 PM 73.4 °F - 71.6 °F 94% 30.10 in 10.0 mi SE 9.2 mph - N/A   Mostly Cloudy
8:53 PM 73.9 °F - 72.0 °F 93% 30.09 in 10.0 mi SSE 6.9 mph - 0.02 in Rain Light Rain
9:16 PM 73.4 °F - 71.6 °F 94% 30.09 in 10.0 mi SSE 6.9 mph - 0.00 in   Partly Cloudy
9:53 PM 73.0 °F - 72.0 °F 96% 30.08 in 10.0 mi SE 3.5 mph - 0.00 in   Clear
10:53 PM 73.0 °F - 71.1 °F 93% 30.08 in 10.0 mi Calm Calm - N/A   Clear
11:53 PM 73.0 °F - 71.1 °F 93% 30.08 in 10.0 mi SSE 3.5 mph - N/A   Clear